STARLINK-36801

Last updated on Tue Mar 24 2026 00:02:05 GMT+0000 (Coordinated Universal Time)

1 67888U 26035K 26082.50003471 .00003945 00000+0 27421-4 0 9991 2 67888 97.2854 15.6281 0001562 110.8203 140.2793 15.75093219 5986
UTC large
Height (km)
Speed (km/s)
/
Latitude / Longitude
Inclination (degrees)
Orbital Period (minutes)
Azimuth
Elevation
Range (km)
Doppler Factor

Next 0 passes for location: London (51.5072 / 0.1276)

Sorry there are no passes over London.